User: anonymous   Login
Location: Churchill
(58.7670°N, 94.1670°W)
Time: 08:31:32
(UTC-06:00)
Language:

Cosmos 1315 Rocket - Orbit

View from above orbital plane
View from above orbital plane
View from above satellite
View from above satellite

Ground track
Ground track

The orbit data is extracted from the following two-line orbital elements,

1 12904U 81103B   16339.53550304  .00000819  00000-0  55457-4 0  9994
2 12904  81.1760 137.8491 0028342 347.4384  12.6129 15.05133680463541
Epoch (UTC): 04 December 2016 12:51:07
Eccentricity: 0.0028342
inclination: 81.1760°
perigee height: 531 km
apogee height: 571 km
right ascension of ascending node: 137.8491°
argument of perigee: 347.4384°
revolutions per day: 15.05133680
mean anomaly at epoch: 12.6129°
orbit number at epoch: 46354

The dashed part of the orbit path shows where the satellite is in the earth's shadow,  

DLR